When you browse on this site, cookies collect data to enhance your experience and personalize the content and advertising you see.
Visit our Privacy Policy to learn more. By continuing to use the site, you agree to this use of cookies and data.
  • In Hungary
  • List of Countries
  • For 7 days
  • Water Temperature
  • Weather Map
  • News
  • Weather Widgets
  • user-avatar
    Login

    Hourly Weather La Azulita

    Today, 28 March, Saturday

    Time Temperature Precipitation Wind Pressure Humidity
    00:00 +21°C° 0 mm 1 mps 655 mmHg 81%
    01:00 +20°C° 0 mm 1 mps 654 mmHg 82%
    02:00 +20°C° 0.1 mm 1 mps 654 mmHg 84%
    03:00 +20°C° 0.1 mm 1 mps 654 mmHg 85%
    04:00 +19°C° 0.1 mm 1 mps 654 mmHg 87%
    05:00 +20°C° 0 mm 1 mps 655 mmHg 87%
    06:00 +20°C° 0 mm 1 mps 655 mmHg 87%
    07:00 +20°C° 0 mm 1 mps 656 mmHg 87%
    08:00 +21°C° 0.1 mm 1 mps 656 mmHg 83%
    09:00 +21°C° 0.1 mm 2 mps 657 mmHg 79%
    10:00 +23°C° 0.1 mm 2 mps 658 mmHg 75%
    11:00 +24°C° 0.2 mm 2 mps 657 mmHg 75%
    12:00 +24°C° 0.2 mm 2 mps 656 mmHg 75%
    13:00 +24°C° 0.2 mm 2 mps 655 mmHg 74%
    14:00 +24°C° 0.3 mm 1 mps 655 mmHg 74%
    15:00 +24°C° 0.3 mm 1 mps 654 mmHg 74%
    16:00 +24°C° 0.3 mm 1 mps 654 mmHg 74%
    17:00 +23°C° 0.3 mm 1 mps 654 mmHg 77%
    18:00 +22°C° 0.3 mm 1 mps 654 mmHg 80%
    19:00 +22°C° 0.3 mm 1 mps 655 mmHg 84%
    20:00 +21°C° 0.1 mm 1 mps 655 mmHg 83%
    21:00 +21°C° 0.1 mm 1 mps 656 mmHg 82%
    22:00 +21°C° 0.1 mm 1 mps 656 mmHg 82%
    23:00 +20°C° 0.1 mm 1 mps 656 mmHg 82%

    Tomorrow, 29 March, Sunday

    Time Temperature Precipitation Wind Pressure Humidity
    00:00 +20°C° 0.1 mm 1 mps 655 mmHg 83%
    01:00 +19°C° 0.1 mm 1 mps 655 mmHg 83%
    02:00 +19°C° 0.3 mm 1 mps 655 mmHg 83%
    03:00 +17°C° 0.3 mm 2 mps 655 mmHg 82%
    04:00 +17°C° 0.3 mm 2 mps 655 mmHg 81%
    05:00 +18°C° 0 mm 2 mps 656 mmHg 78%
    06:00 +18°C° 0 mm 2 mps 656 mmHg 75%
    07:00 +19°C° 0 mm 2 mps 657 mmHg 72%
    08:00 +21°C° 0 mm 2 mps 657 mmHg 69%
    09:00 +23°C° 0 mm 2 mps 658 mmHg 65%
    10:00 +25°C° 0 mm 2 mps 659 mmHg 62%
    11:00 +25°C° 0 mm 2 mps 658 mmHg 62%
    12:00 +26°C° 0 mm 2 mps 657 mmHg 63%
    13:00 +26°C° 0 mm 2 mps 656 mmHg 64%
    14:00 +26°C° 0.1 mm 2 mps 656 mmHg 66%
    15:00 +25°C° 0.1 mm 2 mps 655 mmHg 68%
    16:00 +25°C° 0.1 mm 1 mps 654 mmHg 70%
    17:00 +24°C° 0.3 mm 1 mps 655 mmHg 74%
    18:00 +23°C° 0.3 mm 1 mps 655 mmHg 78%
    19:00 +22°C° 0.3 mm 1 mps 655 mmHg 82%
    20:00 +22°C° 0 mm 1 mps 655 mmHg 81%
    21:00 +21°C° 0 mm 1 mps 656 mmHg 81%
    22:00 +21°C° 0 mm 1 mps 656 mmHg 81%
    23:00 +20°C° 0.2 mm 1 mps 656 mmHg 81%

    Day after tomorrow, 30 March, Monday

    Time Temperature Precipitation Wind Pressure Humidity
    00:00 +20°C° 0.2 mm 1 mps 656 mmHg 81%
    01:00 +20°C° 0.2 mm 1 mps 655 mmHg 81%
    02:00 +19°C° 0.1 mm 1 mps 655 mmHg 81%
    03:00 +19°C° 0.1 mm 1 mps 655 mmHg 81%
    04:00 +19°C° 0.1 mm 1 mps 655 mmHg 81%
    05:00 +20°C° 0 mm 1 mps 656 mmHg 79%
    06:00 +20°C° 0 mm 1 mps 656 mmHg 77%
    07:00 +21°C° 0 mm 1 mps 657 mmHg 75%
    08:00 +22°C° 0 mm 1 mps 657 mmHg 72%
    09:00 +24°C° 0 mm 2 mps 658 mmHg 70%
    10:00 +25°C° 0 mm 2 mps 658 mmHg 67%
    11:00 +25°C° 0.3 mm 2 mps 657 mmHg 69%
    12:00 +25°C° 0.3 mm 2 mps 656 mmHg 72%
    13:00 +25°C° 0.3 mm 2 mps 656 mmHg 74%
    14:00 +24°C° 0.5 mm 1 mps 655 mmHg 76%
    15:00 +24°C° 0.5 mm 1 mps 654 mmHg 77%
    16:00 +24°C° 0.5 mm 1 mps 654 mmHg 79%
    17:00 +23°C° 0.5 mm 1 mps 654 mmHg 81%
    18:00 +23°C° 0.5 mm 1 mps 654 mmHg 83%
    19:00 +22°C° 0.5 mm 1 mps 654 mmHg 85%
    20:00 +22°C° 0.2 mm 1 mps 655 mmHg 85%
    21:00 +22°C° 0.2 mm 1 mps 655 mmHg 84%
    22:00 +22°C° 0.2 mm 1 mps 656 mmHg 84%
    23:00 +21°C° 0.1 mm 1 mps 655 mmHg 86%

    31 March, Tuesday

    Time Temperature Precipitation Wind Pressure Humidity
    00:00 +20°C° 0.1 mm 1 mps 654 mmHg 89%
    01:00 +20°C° 0.1 mm 1 mps 654 mmHg 91%
    02:00 +20°C° 0.2 mm 1 mps 654 mmHg 91%
    03:00 +20°C° 0.2 mm 1 mps 654 mmHg 91%
    04:00 +19°C° 0.2 mm 1 mps 654 mmHg 91%
    05:00 +20°C° 0 mm 1 mps 654 mmHg 90%
    06:00 +20°C° 0 mm 1 mps 655 mmHg 88%
    07:00 +21°C° 0 mm 1 mps 656 mmHg 87%
    08:00 +22°C° 0.1 mm 1 mps 656 mmHg 84%
    09:00 +23°C° 0.1 mm 2 mps 657 mmHg 81%
    10:00 +24°C° 0.1 mm 2 mps 657 mmHg 78%
    11:00 +24°C° 0.7 mm 2 mps 656 mmHg 80%
    12:00 +24°C° 0.7 mm 1 mps 655 mmHg 82%
    13:00 +23°C° 0.7 mm 1 mps 655 mmHg 84%
    14:00 +24°C° 0.7 mm 1 mps 654 mmHg 83%
    15:00 +24°C° 0.7 mm 1 mps 654 mmHg 82%
    16:00 +24°C° 0.7 mm 1 mps 653 mmHg 81%
    17:00 +23°C° 0.2 mm 1 mps 653 mmHg 83%
    18:00 +22°C° 0.2 mm 1 mps 654 mmHg 84%
    19:00 +22°C° 0.2 mm 1 mps 654 mmHg 86%
    20:00 +21°C° 0.1 mm 1 mps 654 mmHg 85%
    21:00 +21°C° 0.1 mm 1 mps 655 mmHg 85%
    22:00 +21°C° 0.1 mm 1 mps 655 mmHg 84%
    23:00 +21°C° 0.3 mm 1 mps 655 mmHg 85%

    1 April, Wednesday

    Time Temperature Precipitation Wind Pressure Humidity
    00:00 +21°C° 0.3 mm 1 mps 654 mmHg 87%
    01:00 +20°C° 0.3 mm 1 mps 654 mmHg 89%
    02:00 +20°C° 0.1 mm 1 mps 654 mmHg 90%
    03:00 +20°C° 0.1 mm 1 mps 653 mmHg 91%
    04:00 +20°C° 0.1 mm 1 mps 653 mmHg 92%
    05:00 +20°C° 0 mm 1 mps 654 mmHg 90%
    06:00 +20°C° 0 mm 1 mps 655 mmHg 88%
    07:00 +21°C° 0 mm 1 mps 655 mmHg 86%
    08:00 +22°C° 0 mm 1 mps 656 mmHg 83%
    09:00 +23°C° 0 mm 1 mps 656 mmHg 79%
    10:00 +24°C° 0 mm 2 mps 657 mmHg 76%
    11:00 +24°C° 0.2 mm 1 mps 656 mmHg 75%
    12:00 +25°C° 0.2 mm 1 mps 655 mmHg 74%
    13:00 +25°C° 0.2 mm 1 mps 655 mmHg 74%
    14:00 +25°C° 0.4 mm 1 mps 654 mmHg 73%
    15:00 +25°C° 0.4 mm 1 mps 654 mmHg 73%
    16:00 +25°C° 0.4 mm 1 mps 653 mmHg 73%
    17:00 +24°C° 0.6 mm 1 mps 654 mmHg 76%
    18:00 +23°C° 0.6 mm 1 mps 654 mmHg 79%
    19:00 +22°C° 0.6 mm 1 mps 654 mmHg 83%
    20:00 +22°C° 0.2 mm 1 mps 655 mmHg 81%
    21:00 +22°C° 0.2 mm 1 mps 655 mmHg 80%
    22:00 +22°C° 0.2 mm 1 mps 656 mmHg 79%
    23:00 +22°C° 0.2 mm 1 mps 655 mmHg 80%

    2 April, Thursday

    Time Temperature Precipitation Wind Pressure Humidity
    00:00 +21°C° 0.2 mm 1 mps 655 mmHg 82%
    01:00 +21°C° 0.2 mm 1 mps 655 mmHg 83%
    02:00 +21°C° 0.6 mm 1 mps 655 mmHg 85%
    03:00 +20°C° 0.6 mm 1 mps 654 mmHg 87%
    04:00 +20°C° 0.6 mm 1 mps 654 mmHg 89%
    05:00 +21°C° 0.1 mm 1 mps 655 mmHg 88%
    06:00 +21°C° 0.1 mm 1 mps 656 mmHg 86%
    07:00 +21°C° 0.1 mm 1 mps 656 mmHg 85%
    08:00 +23°C° 0.3 mm 1 mps 657 mmHg 83%
    09:00 +24°C° 0.3 mm 1 mps 657 mmHg 81%
    10:00 +25°C° 0.3 mm 2 mps 658 mmHg 79%
    11:00 +25°C° 0.6 mm 2 mps 657 mmHg 78%
    12:00 +25°C° 0.6 mm 1 mps 656 mmHg 77%
    13:00 +25°C° 0.6 mm 1 mps 655 mmHg 77%
    14:00 +26°C° 0.5 mm 1 mps 655 mmHg 76%
    15:00 +26°C° 0.5 mm 1 mps 654 mmHg 75%
    16:00 +26°C° 0.5 mm 1 mps 654 mmHg 74%
    17:00 +25°C° 0.8 mm 1 mps 654 mmHg 77%
    18:00 +24°C° 0.8 mm 1 mps 654 mmHg 81%
    19:00 +23°C° 0.8 mm 1 mps 655 mmHg 84%
    20:00 +23°C° 0.1 mm 1 mps 655 mmHg 83%
    21:00 +22°C° 0.1 mm 1 mps 656 mmHg 82%
    22:00 +22°C° 0.1 mm 1 mps 656 mmHg 80%
    23:00 +22°C° 0.1 mm 1 mps 656 mmHg 82%
    Show more